Hourly Data Report for August 15, 2022

IQALUIT CLIMATE
NUNAVUT
Current Station Operator: ECCC - MSC

63°44'50.000" N
68°32'40.000" W
33.50 m
2402592
71321
XFB

Download Data

Hourly Data (August 2022)
Hourly Data Report for August 15, 2022
TIME
LST
Temp Definition
°C
Dew Point Definition
°C
Rel Hum Definition
%
Precip. Amount Definition
mm

Wind Dir Definition
10's deg

Wind Spd Definition
km/h
Visibility Definition
km
Stn Press Definition
kPa
Hmdx Definition


Wind Chill Definition


Weather Definition


00:00 5.9 2.7 80 0.0 32 25   100.35     LegendNANA
01:00 5.3 2.9 84 0.0 32 22   100.39     LegendNANA
02:00 5.4 2.9 84 0.0 33 25   100.43     LegendNANA
03:00 4.9 2.8 86 0.0 32 24   100.48     LegendNANA
04:00 5.1 2.5 83 0.0 31 25   100.54     LegendNANA
05:00 5.0 2.4 83 0.0 32 24   100.58     LegendNANA
06:00 5.3 2.5 82 0.0 33 27   100.61     LegendNANA
07:00 5.6 2.3 79 0.0 32 28   100.66     LegendNANA
08:00 6.1 2.7 78 0.0 32 28   100.66     LegendNANA
09:00 7.3 3.2 75 0.0 32 25   100.69     LegendNANA
10:00 8.3 3.5 72 0.0 33 25   100.70     LegendNANA
11:00 8.3 3.2 70 0.0 34 19   100.69     LegendNANA
12:00 9.5 2.8 63 0.0 31 18   100.68     LegendNANA
13:00 9.3 2.5 62 0.0 30 19   100.67     LegendNANA
14:00 9.9 3.1 62 0.0 32 22   100.67     LegendNANA
15:00 9.9 2.9 62 0.0 33 21   100.69     LegendNANA
16:00 9.4 2.8 63 0.0 33 18   100.69     LegendNANA
17:00 9.3 3.5 67 0.0 32 14   100.69     LegendNANA
18:00 8.7 2.2 63 0.0 28 20   100.67     LegendNANA
19:00 7.2 1.9 69 0.0 27 26   100.67     LegendNANA
20:00 6.4 2.1 74 0.0 22 5   100.62     LegendNANA
21:00 4.6 2.0 83 0.0 13 8   100.54     LegendNANA
22:00 4.7 2.5 86 0.1 13 9   100.41     LegendNANA
23:00 4.6 3.5 93 1.7 14 12   100.34     LegendNANA

Notes on Data Quality.

Legend

  • E = Estimated
  • M = Missing
  • NA = Not Available*
  • [empty] = Indicates an unobserved value
Date modified: